1st Responders/1st Detectors/Storm Spotters Weather Summary for Boone County, KY

Forecast Maps


Reg. NEXRAD Animation


National Fire Danger: Day 1 & 2 Map

Current NWS Watch/Warnings

SPC Convective Day 1 Outlook


Day 2 Outlook

(Click images to enlarge|Page will refresh every 5 minutes)
UK Ag. Weather Center Desktop Severe Weather Service[HERE]
Boone County, KY Hazardous Weather Outlook Webcast
(9 AM to 9 PM Mon-Fri)
[Fast]
[Dial-up]


UKAWC 1st Detectors/1st Responders Precision Weather Forecast For BOONE County, Kentucky
(based on the NWS County Digital Forecast)

ISSUED AT 22:00 UTC ON SUNDAY OCT 22 2017
DAY SUNDAY MONDAY
EDT 3HR 7P 8P 9P 10P 11P MIDN 1A 2A 3A 4A 5A 6A 7A 8A 9A 10A 11A NOON 1P 2P 3P 4P 5P 6P 7P
MAX/MIN 76° -- -- -- -- -- -- -- -- -- -- -- -- 61° -- -- -- -- -- -- -- -- -- -- 65°
TEMP 70° 67° 67° 67° 67° 65° 65° 65° 65° 63° 63° 63° 63° 63° 61° 61° 63° 63° 63° 63° 63° 63° 63° 61° 59°
SKY COVER 46% 52% 58% 71% 77% 81% 88% 91% 93% 96% 97% 98% 99% 100% 100% 100% 100% 100% 100% 99% 99% 97% 96% 95% 93%
Clouds
DEW PT 54° 54° 54° 54° 54° 54° 56° 56° 56° 56° 56° 58° 58° 58° 59° 59° 61° 61° 61° 61° 61° 59° 58° 58° 56°
RH 58% 63% 65% 65% 65% 67% 70% 69% 72% 78% 78% 83% 83% 87% 93% 93% 93% 96% 96% 93% 90% 86% 86% 86% 89%
POP 12HR -- 4% -- -- -- -- -- -- -- -- -- -- -- 85% -- -- -- -- -- -- -- -- -- -- --
RAIN/SNOW (liq.equ) -- 0.00in -- -- -- -- -- 0.01in -- -- -- -- -- 0.33in -- -- -- -- -- 0.57in -- -- -- -- --
SNOWFALL -- 0in -- -- -- -- -- 0in -- -- -- -- -- 0in -- -- -- -- -- 0in -- -- -- -- --
WIND SPEED(MPH) 8 7 7 7 8 8 8 8 8 8 7 7 7 8 7 8 9 9 9 9 9 9 10 10 10
WIND Gust(MPH) 9 7 7 7 8 9 9 9 9 8 7 7 7 8 15 14 10 10 9 9 9 9 10 10 10
WIND DIR S SE SE SE SE SE S S S S SE SE SE E SE SE SE S S S S S S SW SW
DEW -- -- -- -- -- -- Lgt Dew -- -- -- -- -- -- -- -- -- -- -- -- -- -- -- -- -- --
HeatIndex 70 67 67 67 67 65 65 65 65 63 63 63 63 63 61 61 63 63 63 63 63 63 63 61 59
Rain Showers -- -- -- -- -- -- Slight Chance Slight Chance Chance Chance Chance Chance Definite Definite Definite Definite Definite Definite Definite Definite Definite Likely Likely Likely Likely
WIND CHILL -- -- -- -- -- -- -- -- -- -- -- -- -- -- -- -- -- -- -- -- -- -- -- -- --
SPRAY COND
DRY COND
LIVESTOCK COLDSTRESS
LIVESTOCK HEATSTRESS 67.41 65.33 65.42 65.42 65.42 63.87 63.98 63.94 64.05 62.49 62.49 62.61 62.61 62.70 60.92 60.92 62.84 62.91 62.91 62.84 62.77 62.68 62.68 60.83 58.99



DAY TUESDAY WEDNESDAY THURSDAY FRIDAY SATURDAY SUNDAY
EDT 6HR 8P 9P 10P 11P MIDN 1A 2A 3A 4A 5A 6A 8A 11A 2P 5P 8P 11P 2A 5A 8A 11A 2P 5P 8P 2A 8A 2P 8P 2A 8A 2P 8P 2A 8A 2P 8P 2A 8A 2P 8P
MAX/MIN -- -- -- -- -- -- -- -- -- -- -- 47° -- -- 56° -- -- -- -- 38° -- -- 50° -- -- 36° 59° -- -- 45° 63° -- -- 41° 54° -- -- 38° 50° --
TEMP 58° 54° 52° 52° 50° 49° 49° 49° 49° 49° 47° 47° 52° 56° 56° 49° 45° 41° 40° 38° 45° 49° 50° 45° 38° 36° 58° 54° 49° 45° 61° 54° 45° 41° 54° 49° 41° 38° 49° 45°
SKY COVER 92% 89% 83% 79% 79% 78% 77% 78% 78% 79% 79% 78% 76% 64% 78% 72% 74% 76% 75% 75% 75% 75% 72% 69% 25% 24% 21% 17% 27% 33% 54% 62% 71% 75% 67% 63% 53% 56% 51% 55%
Clouds
DEW PT 54° 52° 49° 47° 45° 45° 45° 45° 45° 45° 45° 45° 45° 43° 41° 40° 38° 38° 38° 36° 36° 36° 36° 36° 36° 34° 40° 40° 40° 40° 49° 45° 40° 38° 41° 40° 36° 36° 38° 36°
RH 90% 89% 86% 83% 83% 83% 83% 83% 89% 88% 92% 95% 77% 63% 59% 68% 79% 88% 92% 91% 73% 60% 58% 73% 89% 95% 52% 58% 73% 82% 62% 71% 82% 85% 63% 70% 82% 89% 63% 68%
POP 12HR 100% -- -- -- -- -- -- -- -- -- -- 56% -- -- -- 37% -- -- -- 24% -- -- -- 19% -- 7% -- 8% -- 12% -- 39% -- 40% -- 20% -- 20% -- 19%
RAIN/SNOW (liq.equ) 0.26in -- -- -- -- -- 0.10in -- -- -- -- 0.05in -- 0.03in -- 0.03in -- 0.01in -- 0.02in -- 0.00in -- 0.01in -- -- -- -- -- -- -- -- -- -- -- -- -- -- -- --
SNOWFALL 0in -- -- -- -- -- 0in -- -- -- -- 0in -- 0in -- 0in -- 0in -- 0in -- 0in -- 0in -- -- -- -- -- -- -- -- -- -- -- -- -- -- -- --
WIND SPEED(MPH) 10 9 9 10 9 8 7 7 7 7 7 7 9 10 10 7 7 7 7 7 8 8 7 5 1 1 6 6 7 7 9 7 6 6 7 5 6 6 7 7
WIND DIR SW SW W W W W W SW SW SW SW SW W W W W W W W W W W W SW SW S S S S S SW SW SW SW SW W W W W W
HeatIndex 58 54 52 52 50 49 49 49 49 49 47 47 52 56 56 49 41 37 35 34 40 49 50 42 38 36 58 54 49 45 61 54 45 38 54 49 38 34 49 45
Rain Showers Likely Chance Chance Chance Chance Chance Chance Chance Chance Chance Chance Chance Chance Chance Chance Slight Chance Slight Chance Slight Chance Slight Chance Slight Chance Slight Chance Slight Chance -- -- -- -- -- -- -- -- Slight Chance Chance Slight Chance Slight Chance Slight Chance Slight Chance Slight Chance Slight Chance Slight Chance --
WIND CHILL -- -- -- -- -- -- -- -- -- -- -- -- -- -- -- -- 41° 36° 35° 33° 41° -- -- 43° -- -- -- -- -- 41° -- -- 42° 37° -- -- 37° 34° -- 41°
SPRAY COND
DRY COND
LIVESTOCK COLDSTRESS
LIVESTOCK HEATSTRESS 58.04 54.29 52.52 52.64 50.82 49.92 49.92 49.92 49.59 49.65 47.52 47.32 52.86 56.57 56.63 50.72 46.59 42.17 40.83 39.03 47.05 51.16 52.03 47.05 39.26 36.63 58.21 55.11 50.46 46.37 60.54 54.77 46.37 42.47 54.98 50.62 42.76 39.26 50.99 47.43

Click on individual weather variable above in left-hand column (ie., TEMP, RH, QPF 12HR) to view state forecast maps






NWS 48 Hr. Forecast Maps,

Regional Hourly Observations For BOONE County, Kentucky
Issued at 600 PM EDT SUN OCT 22 2017
...SOUTHERN OHIO/WEST VIRGINIA...
  
CITY           SKY/WX    TMP DP  RH WIND       PRES   REMARKS
COVINGTON      MOCLDY    69  54  58 S9        30.10F                  
COLUMBUS       CLOUDY    74  50  42 S7        30.13S                  
DAYTON         MOCLDY    71  50  47 S16       30.11S                  
WILMINGTON     MOCLDY    70  50  49 S6        30.13S                  
HUNTINGTON     CLOUDY    72  50  45 S3        30.15F                  
CHARLESTON     CLOUDY    74  49  41 E5        30.17R                  
PINEVILLE*     CLOUDY    73  46  38 MISG      30.26R                  
BECKLEY        CLOUDY    68  41  37 SE8       30.26R                  
BLUEFIELD      CLOUDY    64  42  44 S9G18     30.29R                  
LOGAN CO APT*    N/A     77  50  38 CALM      30.18S                  


Current NOWCAST not available:
Nowcasts are not issued routinely during fair weather. Only when
precipitation or other significant weather is occuring in this county will these
forecasts be issued. Currently, there is no short term forecast in effect.


Fire Weather Forecast For BOONE County, KY
Provided by the National Weather Service:

Issued at: Sun Oct 22 18:05:01 EDT 2017

CLOUD COVER                     MCldy       Cloudy        MCldy        MCldy
PRECIP TYPE                   Showers      Showers      Showers      Showers
CHANCE PRECIP (%)                  40          100           60           40
TEMP (24H TREND)              61 (+9)     66 (-10)           47           56
RH % (24H TREND)              95 (+5)     78 (+32)           96           57
20FTWND-AM(MPH)                              SE  8                      W  7
20FTWND-PM(MPH)                 SE  6         S  8        SW  9         W  9
PRECIP AMOUNT                    0.23         0.85         0.21         0.07
PRECIP DURATION                     1           11            4            2
MIXING HGT(FT-AGL)                            4020                      8120
TRANSPORT WND (MPH)                           S 21                      W 20
LAL                                 1            1            1            1
HAINES INDEX                        3            3            3            3

REMARKS...None.

.FORECAST FOR DAYS 3 THROUGH 7...
.TUESDAY NIGHT...Mostly cloudy with a chance of showers. Lows in the upper
30s. West winds around 5 mph. 
.WEDNESDAY...Mostly cloudy. Highs in the lower 50s. West winds 5 to
10 mph. 
.THURSDAY...Partly cloudy. Lows in the mid 30s. Highs in the upper 50s.
South winds around 5 mph. 
.FRIDAY...Partly cloudy. A chance of showers. Lows in the mid 40s. Highs
in the lower 60s. Southwest winds 5 to 10 mph. 
.SATURDAY...Mostly cloudy. A chance of showers. Lows in the lower 40s.
Highs in the upper 50s. Southwest winds around 5 mph. 
.SUNDAY...Mostly cloudy. Lows in the upper 30s. Highs in the lower 50s.
West winds around 5 mph. 

SPC's Fire Weather Web Tool (Excellent!), SPC's Fire Weather Outlooks, NWS Fire Weather WEB, Fire Danger Class Map,
Keetch-Byram Drought Index, ROMAN Web, Haines Index ,
WFAS's 10-hr Dead Fuel Moist., WFAS's 100-hr Dead Fuel Moist., Probablity of Ignition, Visual blackness Map, Palmer Drought Index, HPC's Rainfall Forecast Maps


Hazardous Weather Outlook For BOONE County, Kentucky
402 PM EDT Sun Oct 22 2017

 DAY ONE  Tonight.

Hazardous weather is not expected at this time.

 DAYS TWO THROUGH SEVEN  Monday through Saturday.

Widespread rain will overspread the region early Monday morning and 
continue into the afternoon. Some locally heavy rainfall will be 
possible during the day on Monday.

 SPOTTER INFORMATION STATEMENT  

Spotter activation is not expected at this time.

Latest BOONE County, Kentucky Watches, Warnings and Advisories.
Additional Drought Info.: UKAWC Drought Page, Kentucky Drought Watch


7-Day Forecast For BOONE County, KY

TONIGHT
Partly cloudy this evening, then cloudy with a chance of showers after midnight. Unseasonably warm with lows in the lower 60s. Southeast winds around 10 mph. Chance of rain 40 percent.

MONDAY
Showers. Highs in the mid 60s. Southeast winds 5 to 10 mph, becoming south in the afternoon. Chance of rain 100 percent.

MONDAY NIGHT
Mostly cloudy. Showers likely, mainly in the evening. Colder. Less muggy with lows in the upper 40s. Southwest winds 5 to 10 mph. Chance of rain 60 percent.

TUESDAY
Mostly cloudy in the morning, then becoming partly cloudy. A 40 percent chance of showers. Highs in the mid 50s. West winds around 10 mph.

TUESDAY NIGHT
Mostly cloudy. A chance of showers, mainly in the evening. Lows in the upper 30s. West winds 5 to 10 mph. Chance of rain 30 percent.

WEDNESDAY
Mostly cloudy. Highs in the lower 50s.

WEDNESDAY NIGHT
Partly cloudy in the evening, then clearing. Lows in the mid 30s.

THURSDAY
Mostly sunny. Highs around 60.

THURSDAY NIGHT
Mostly clear. Lows in the mid 40s.

FRIDAY
Partly cloudy. A chance of showers in the afternoon. Highs in the lower 60s. Chance of rain 30 percent.

FRIDAY NIGHT
Partly cloudy with a chance of showers in the evening, then mostly cloudy after midnight. Lows in the lower 40s. Chance of rain 40 percent.

SATURDAY
Mostly cloudy in the morning, then becoming partly cloudy. Highs in the mid 50s.

SATURDAY NIGHT
Partly cloudy. Lows in the upper 30s.

SUNDAY
Partly cloudy. Highs in the lower 50s.

Ag Weather Center, Department of Biosystems & Agricultural Engineering, University of Kentucky